"Pseudo-MPEC" for C1FPQP5

Created 2026 Aug 26 0:35:03 UT using Find_Orb

Click here for an explanation of pseudo-MPECs

 
 Astrometry: 
     C1FPQP5*1C2026 08 21.39535300 08 11.296+08 40 42.13   ~8OFo 21.06GVNEOCPV00
     C1FPQP5 1C2026 08 21.40032000 08 11.454+08 40 43.39   ~8OFo 20.85GVNEOCPV00
     C1FPQP5 1C2026 08 21.40528900 08 11.591+08 40 44.72   ~8OFo 21.28GVNEOCPV00
     C1FPQP5 1C2026 08 21.41025800 08 11.735+08 40 45.98   ~8OFo 21.19GVNEOCPV00
     C1FPQP5 0C2026 08 21.46869000 08 13.350+08 41 02.60   ~8OFo 20.4 RVNEOCP291
     C1FPQP5 0C2026 08 21.47691200 08 13.560+08 41 04.50   ~8OFo 21.3 RVNEOCP291
     C1FPQP5 0C2026 08 21.48514000 08 13.790+08 41 06.50   ~8OFo 19.6 RVNEOCP291

Station data:
(291) LPL/Spacewatch II  (N31.961669 W111.599905)  US/Arizona.  Observers J.
   V. Scotti, R. S. McMillan. 1.8-m f/2.7 reflector + CCD.
(V00) Kitt Peak-Bok  (N31.963125 W111.600190)  US/Arizona. Measurers T.
   Beuden, V. F. Carvajal, D. Fay, J. B. Fazekas, D. C. Fuls, A. R. Gibbs, A.
   D. Grauer, H. Gröller, J. K. Hogan, R. A. Kowalski, S. M. Larson, G. J.
   Leonard, D. Rankin, R. L. Seaman, F. C. Shelly, K. W. Wierzchoś. 2.25-m
   reflector + 4x4K mosaic CCD.

Orbital elements:  C1FPQP5
   Perihelion 2026 Oct 18.450606 +/- 47.2 TT = 10:48:52.3 (JD 2461331.950606)
Epoch 2026 Aug 21.0 TT = JDT 2461273.5   Earth MOID: 0.0005   Ju: 0.7455
M 359.935470893 +/- 32              Ve: 0.0050   Me: 0.0033   Ma: 0.0938
n   0.001103993 +/-                 Peri.  301.707878 +/- 90     AutoNEOCP
a  92.71676917 +/-                  Node   170.153675 +/- 37
e   0.99740567 +/- 0.25             Incl.   14.122919 +/- 4.7
P 892.76557                H 20.66  G  0.15   U 10.7  SR
q 0.240537162 +/- 0.551    Q 185.1930011 +/- 50.9         (J2000 ecliptic)
From 7 observations 2026 Aug. 21 (2.2 hr); mean residual 0".17
Residuals in arcseconds: 
260821 V00  .28-  .13+    260821 V00  .18+  .17-    260821 291  .12-  .24-    
260821 V00  .05+  .01+    260821 291  .20+  .34+    
260821 V00  .06+  .05-    260821 291  .10-  .00     

Ephemerides (geocentric):
Date (UTC) HH   RA             Dec           delta  r     elong  mag " sig PA
---- --------  ------------   ------------  ------ ------ -----  --- --------
2026 08 26 01  00 10 56.291   +09 02 43.49  .39770 1.3577 145.7 20.5 7776 100
2026 08 26 02  00 10 57.888   +09 02 55.61  .39674 1.3569 145.7 20.5 8767 100
2026 08 26 03  00 10 59.489   +09 03 07.74  .39578 1.3562 145.7 20.5 167'  99
2026 08 26 04  00 11 01.092   +09 03 19.88  .39482 1.3554 145.8 20.5 193'  99
2026 08 26 05  00 11 02.698   +09 03 32.03  .39387 1.3546 145.8 20.4 227'  98
2026 08 26 06  00 11 04.308   +09 03 44.19  .39291 1.3538 145.8 20.4 272'  98
2026 08 26 07  00 11 05.920   +09 03 56.37  .39195 1.3530 145.9 20.4 332'  96
2026 08 26 08  00 11 07.536   +09 04 08.55  .39100 1.3522 145.9 20.4 410'  95
2026 08 26 09  00 11 09.155   +09 04 20.74  .39004 1.3514 145.9 20.4 505'  93
2026 08 26 10  00 11 10.777   +09 04 32.94  .38908 1.3506 146.0 20.4 607'  91
2026 08 26 11  00 11 12.403   +09 04 45.16  .38813 1.3499 146.0 20.4 702'  89
2026 08 26 12  00 11 14.031   +09 04 57.39  .38717 1.3491 146.0 20.4 779'  88
2026 08 26 13  00 11 15.663   +09 05 09.62  .38621 1.3483 146.1 20.4 837'  87
2026 08 26 14  00 11 17.299   +09 05 21.87  .38526 1.3475 146.1 20.4 882'  87
2026 08 26 15  00 11 18.937   +09 05 34.14  .38430 1.3467 146.1 20.4 915'  86
2026 08 26 16  00 11 20.580   +09 05 46.41  .38335 1.3459 146.2 20.4 941'  86
2026 08 26 17  00 11 22.225   +09 05 58.69  .38239 1.3451 146.2 20.4 962'  86
2026 08 26 18  00 11 23.874   +09 06 10.99  .38143 1.3443 146.2 20.4 978'  85
2026 08 26 19  00 11 25.527   +09 06 23.30  .38048 1.3436 146.2 20.3 992'  85
2026 08 26 20  00 11 27.183   +09 06 35.63  .37952 1.3428 146.3 20.3  17d  85
2026 08 26 21  00 11 28.843   +09 06 47.96  .37857 1.3420 146.3 20.3  17d  85
2026 08 26 22  00 11 30.506   +09 07 00.31  .37762 1.3412 146.3 20.3  17d  85
2026 08 26 23  00 11 32.173   +09 07 12.67  .37666 1.3404 146.4 20.3  17d  85
2026 08 27 00  00 11 33.844   +09 07 25.05  .37571 1.3396 146.4 20.3  17d  85
2026 08 27 01  00 11 35.519   +09 07 37.43  .37475 1.3388 146.4 20.3  17d  85
2026 08 27 02  00 11 37.197   +09 07 49.84  .37380 1.3380 146.5 20.3  17d  85
2026 08 27 03  00 11 38.879   +09 08 02.25  .37284 1.3372 146.5 20.3  17d  85
2026 08 27 04  00 11 40.565   +09 08 14.68  .37189 1.3364 146.5 20.3  18d  85
2026 08 27 05  00 11 42.255   +09 08 27.13  .37094 1.3357 146.6 20.3  18d  85
2026 08 27 06  00 11 43.949   +09 08 39.58  .36998 1.3349 146.6 20.3  18d  85
2026 08 27 07  00 11 45.647   +09 08 52.06  .36903 1.3341 146.6 20.3  18d  85
2026 08 27 08  00 11 47.348   +09 09 04.54  .36808 1.3333 146.7 20.3  18d  85
2026 08 27 09  00 11 49.054   +09 09 17.05  .36712 1.3325 146.7 20.3  18d  85
2026 08 27 10  00 11 50.764   +09 09 29.56  .36617 1.3317 146.7 20.2  18d  85
2026 08 27 11  00 11 52.478   +09 09 42.10  .36522 1.3309 146.8 20.2  18d  85
2026 08 27 12  00 11 54.197   +09 09 54.64  .36427 1.3301 146.8 20.2  18d  85
2026 08 27 13  00 11 55.919   +09 10 07.21  .36332 1.3293 146.8 20.2  18d  85
2026 08 27 14  00 11 57.646   +09 10 19.79  .36236 1.3285 146.8 20.2  18d  85
2026 08 27 15  00 11 59.377   +09 10 32.38  .36141 1.3277 146.9 20.2  18d  85
2026 08 27 16  00 12 01.112   +09 10 45.00  .36046 1.3269 146.9 20.2  18d  85
2026 08 27 17  00 12 02.852   +09 10 57.63  .35951 1.3261 146.9 20.2  18d  85
2026 08 27 18  00 12 04.596   +09 11 10.27  .35856 1.3254 147.0 20.2  18d  85
2026 08 27 19  00 12 06.345   +09 11 22.93  .35761 1.3246 147.0 20.2  18d  85
2026 08 27 20  00 12 08.098   +09 11 35.61  .35665 1.3238 147.0 20.2  18d  85
2026 08 27 21  00 12 09.856   +09 11 48.31  .35570 1.3230 147.1 20.2  18d  85
2026 08 27 22  00 12 11.619   +09 12 01.02  .35475 1.3222 147.1 20.2  18d  85
2026 08 27 23  00 12 13.386   +09 12 13.76  .35380 1.3214 147.1 20.2  18d  85
2026 08 28 00  00 12 15.158   +09 12 26.51  .35285 1.3206 147.2 20.1  18d  85